| time (UTC) | temp C | wind direction | speed KPH | gust KPH | rain 1hr cm | rain 24hr cm | rain mn cm | humidity % | barometer mb |
| 20260510163143 | 18 | 200 | 4.8 | 4.8 | 0.00 | 0.03 | 0.03 | 75 | 1017.7 |
| 20260510160141 | 18 | 137 | 3.2 | 3.2 | 0.00 | 0.03 | 0.03 | 76 | 1017.7 |
| 20260510153140 | 18 | 104 | 6.4 | 6.4 | 0.00 | 0.03 | 0.03 | 75 | 1017.4 |
| 20260510150140 | 17 | 204 | 4.8 | 4.8 | 0.00 | 0.03 | 0.03 | 76 | 1017.4 |
| 20260510143136 | 16 | 192 | 3.2 | 3.2 | 0.00 | 0.03 | 0.03 | 76 | 1017.4 |
| 20260510140137 | 15 | 192 | 0.0 | 0.0 | 0.00 | 0.03 | 0.03 | 80 | 1016.7 |
| 20260510133132 | 16 | 198 | 0.0 | 0.0 | 0.00 | 0.03 | 0.03 | 79 | 1016.7 |
| 20260510130133 | 15 | 155 | 0.0 | 0.0 | 0.00 | 0.03 | 0.03 | 82 | 1016.7 |
| 20260510123128 | 13 | 210 | 0.0 | 0.0 | 0.00 | 0.00 | 0.00 | 85 | 1016.3 |
| 20260510120125 | 13 | 216 | 0.0 | 0.0 | 0.00 | 0.00 | 0.00 | 86 | 1016.0 |
| 20260510113122 | 11 | 179 | 0.0 | 0.0 | 0.00 | 0.00 | 0.00 | 92 | 1016.0 |
| 20260510110118 | 10 | 126 | 0.0 | 0.0 | 0.00 | 0.00 | 0.00 | 95 | 1015.2 |
| 20260510103113 | 8 | 176 | 0.0 | 0.0 | 0.00 | 0.00 | 0.00 | 96 | 1015.2 |
| 20260510100111 | 9 | 132 | 0.0 | 0.0 | 0.00 | 0.00 | 0.00 | 95 | 1014.9 |
| 20260510093107 | 10 | 186 | 0.0 | 0.0 | 0.00 | 0.00 | 0.00 | 93 | 1014.9 |
| 20260510090106 | 11 | 254 | 0.0 | 0.0 | 0.00 | 0.00 | 0.00 | 92 | 1014.9 |
| 20260510083101 | 10 | 64 | 3.2 | 3.2 | 0.00 | 0.00 | 0.00 | 94 | 1015.2 |
| 20260510080058 | 9 | 198 | 0.0 | 0.0 | 0.00 | 0.00 | 0.00 | 96 | 1013.9 |
| 20260510073056 | 10 | 181 | 0.0 | 0.0 | 0.00 | 0.00 | 0.00 | 95 | 1013.9 |
| 20260510070054 | 10 | 271 | 0.0 | 0.0 | 0.00 | 0.00 | 0.00 | 94 | 1013.9 |
| 20260510063051 | 11 | 260 | 0.0 | 0.0 | 0.00 | 0.00 | 0.00 | 93 | 1014.5 |
| 20260510060046 | 11 | 174 | 0.0 | 0.0 | 0.00 | 0.00 | 0.00 | 96 | 1014.9 |
| 20260510053046 | 9 | 126 | 0.0 | 0.0 | 0.00 | 0.00 | 0.00 | 97 | 1014.5 |
| 20260510050042 | 8 | 105 | 0.0 | 0.0 | 0.00 | 0.00 | 0.00 | 97 | 1014.2 |
| 20260510043039 | 8 | 156 | 0.0 | 0.0 | 0.00 | 0.00 | 0.00 | 97 | 1013.9 |
| 20260510040037 | 9 | 156 | 0.0 | 0.0 | 0.00 | 0.00 | 0.00 | 96 | 1013.5 |
| 20260510033035 | 9 | 174 | 0.0 | 0.0 | 0.00 | 0.51 | 0.51 | 96 | 1013.9 |
| 20260510030034 | 10 | 194 | 0.0 | 0.0 | 0.00 | 0.51 | 0.51 | 95 | 1013.9 |
| 20260510023032 | 10 | 192 | 0.0 | 0.0 | 0.00 | 0.51 | 0.51 | 94 | 1013.5 |
| 20260510020028 | 10 | 204 | 0.0 | 0.0 | 0.00 | 0.51 | 0.51 | 93 | 1013.5 |
| 20260510013027 | 11 | 162 | 0.0 | 0.0 | 0.00 | 0.51 | 0.51 | 93 | 1012.9 |
| 20260510010026 | 12 | 126 | 0.0 | 0.0 | 0.00 | 0.51 | 0.51 | 92 | 1012.5 |
| 20260510003024 | 13 | 180 | 0.0 | 0.0 | 0.00 | 0.51 | 0.51 | 89 | 1011.7 |
| 20260510000021 | 15 | 156 | 0.0 | 0.0 | 0.00 | 0.51 | 0.51 | 85 | 1012.1 |
| 20260509233021 | 16 | 215 | 1.6 | 1.6 | 0.00 | 0.51 | 0.51 | 78 | 1011.7 |
| 20260509230019 | 17 | 216 | 3.2 | 3.2 | 0.00 | 0.51 | 0.51 | 76 | 1012.1 |
| 20260509223015 | 17 | 210 | 0.0 | 0.0 | 0.00 | 0.51 | 0.51 | 72 | 1012.1 |
| 20260509220014 | 17 | 144 | 1.6 | 1.6 | 0.00 | 0.51 | 0.51 | 74 | 1012.1 |
| 20260509213011 | 17 | 223 | 0.0 | 0.0 | 0.00 | 0.51 | 0.51 | 77 | 1012.1 |
| 20260509210008 | 16 | 209 | 0.0 | 0.0 | 0.00 | 0.51 | 0.51 | 78 | 1012.5 |
| 20260509203003 | 15 | 228 | 0.0 | 0.0 | 0.00 | 0.51 | 0.51 | 78 | 1012.9 |
| 20260509200000 | 15 | 183 | 3.2 | 3.2 | 0.00 | 0.51 | 0.51 | 80 | 1012.9 |
| 20260509192956 | 14 | 235 | 0.0 | 0.0 | 0.00 | 0.51 | 0.51 | 80 | 1013.2 |
| 20260509185952 | 14 | 336 | 3.2 | 3.2 | 0.00 | 0.51 | 0.51 | 83 | 1012.9 |
| 20260509182949 | 15 | 272 | 3.2 | 3.2 | 0.00 | 0.51 | 0.51 | 81 | 1013.2 |
| 20260509175948 | 13 | 181 | 3.2 | 3.2 | 0.00 | 0.51 | 0.51 | 86 | 1013.5 |
| 20260509172947 | 13 | 222 | 0.0 | 0.0 | 0.00 | 0.51 | 0.51 | 86 | 1013.9 |
| 20260509165948 | 13 | 204 | 3.2 | 3.2 | 0.00 | 0.51 | 0.51 | 87 | 1014.5 |